JCSAT-5A

Last updated on Tue Sep 16 2025 00:02:46 GMT+0000 (Coordinated Universal Time)

1 29045U 06010A 25258.56338332 -.00000344 00000+0 00000+0 0 9992 2 29045 0.3936 87.9388 0001141 71.2414 170.4719 1.00270077 71014
UTC large
Height (km)
Speed (km/s)
/
Latitude / Longitude
Inclination (degrees)
Orbital Period (minutes)
Azimuth
Elevation
Range (km)
Doppler Factor

Next 0 passes for location: London (51.5072 / 0.1276)

Sorry there are no passes over London.